WWP997 SEQM-MPTO

Flight info

Callsign WWP997
Flight time N/A
Altitude 40000
Route NEGAL ENSOL UM674 TOKUT MILAT SIRIL SIRI3C
Aircraft B738/M-SDE3FGHIRWY/S

Departure

Time N/A
Airport Mariscal Sucre International Airport (SEQM)

Arrival

Time 2026-04-27 18:16
Airport Tocumen International Airport (MPTO)
Time Latitude Longitude Altitude Speed Heading
2026-04-27 17:19 3.32512 -78.92210 31933 ft 456 kts 353°
2026-04-27 17:19 3.35669 -78.92575 31933 ft 456 kts 353°
2026-04-27 17:19 3.41986 -78.93304 31935 ft 457 kts 353°
2026-04-27 17:20 3.48306 -78.94034 31934 ft 457 kts 353°
2026-04-27 17:20 3.54640 -78.94766 31932 ft 458 kts 353°
2026-04-27 17:21 3.60967 -78.95496 31935 ft 458 kts 353°
2026-04-27 17:21 3.67263 -78.96224 31934 ft 458 kts 353°
2026-04-27 17:22 3.73599 -78.96956 31934 ft 458 kts 353°
2026-04-27 17:22 3.79931 -78.97688 31935 ft 458 kts 353°
2026-04-27 17:23 3.86265 -78.98420 31934 ft 458 kts 353°
2026-04-27 17:23 3.92606 -78.99152 31931 ft 459 kts 353°
2026-04-27 17:24 3.98953 -78.99886 31934 ft 459 kts 353°
2026-04-27 17:24 4.05312 -79.00621 31935 ft 459 kts 353°
2026-04-27 17:25 4.11676 -79.01357 31931 ft 460 kts 353°
2026-04-27 17:25 4.18031 -79.02092 31933 ft 460 kts 353°
2026-04-27 17:26 4.24372 -79.02826 31928 ft 461 kts 353°
2026-04-27 17:26 4.30742 -79.03563 31929 ft 461 kts 353°
2026-04-27 17:27 4.37119 -79.04301 31927 ft 461 kts 353°
2026-04-27 17:27 4.43499 -79.05039 31929 ft 462 kts 353°
2026-04-27 17:28 4.49886 -79.05779 31929 ft 462 kts 353°
2026-04-27 17:29 4.59467 -79.06888 31928 ft 462 kts 353°
2026-04-27 17:29 4.65858 -79.07628 31930 ft 462 kts 353°
2026-04-27 17:30 4.72259 -79.08370 31929 ft 463 kts 353°
2026-04-27 17:30 4.81860 -79.09482 31930 ft 463 kts 353°
2026-04-27 17:31 4.88212 -79.10218 31930 ft 463 kts 353°
2026-04-27 17:31 4.94627 -79.10962 31929 ft 463 kts 353°
2026-04-27 17:32 5.04247 -79.12077 31925 ft 464 kts 353°
2026-04-27 17:33 5.10655 -79.12820 31929 ft 464 kts 353°
2026-04-27 17:33 5.17065 -79.13563 31928 ft 464 kts 353°
2026-04-27 17:34 5.23478 -79.14308 31927 ft 464 kts 353°
2026-04-27 17:34 5.29901 -79.15053 31927 ft 464 kts 353°
2026-04-27 17:35 5.36289 -79.15794 31924 ft 464 kts 353°
2026-04-27 17:35 5.42709 -79.16540 31923 ft 464 kts 353°
2026-04-27 17:36 5.49129 -79.17285 31925 ft 465 kts 353°
2026-04-27 17:36 5.55555 -79.18031 31927 ft 465 kts 353°
2026-04-27 17:37 5.61987 -79.18778 31922 ft 465 kts 353°
2026-04-27 17:37 5.68418 -79.19526 31922 ft 465 kts 353°
2026-04-27 17:38 5.74815 -79.20269 31923 ft 465 kts 353°
2026-04-27 17:38 5.81244 -79.21017 31924 ft 465 kts 353°
2026-04-27 17:39 5.87681 -79.21765 31923 ft 465 kts 353°
2026-04-27 17:39 5.94120 -79.22514 31922 ft 465 kts 353°
2026-04-27 17:40 6.00561 -79.23271 31925 ft 466 kts 353°
2026-04-27 17:40 6.06999 -79.24033 31922 ft 466 kts 353°
2026-04-27 17:41 6.13437 -79.24795 31926 ft 466 kts 353°
2026-04-27 17:41 6.19833 -79.25551 31928 ft 466 kts 353°
2026-04-27 17:42 6.26282 -79.26313 31923 ft 466 kts 353°
2026-04-27 17:42 6.32724 -79.27075 31927 ft 466 kts 353°
2026-04-27 17:43 6.39168 -79.27837 31926 ft 466 kts 353°
2026-04-27 17:43 6.45625 -79.28600 31925 ft 467 kts 353°
2026-04-27 17:44 6.52077 -79.29364 31925 ft 467 kts 353°
2026-04-27 17:44 6.58498 -79.30124 31926 ft 467 kts 353°
2026-04-27 17:45 6.64959 -79.30889 31925 ft 467 kts 352°
2026-04-27 17:45 6.71422 -79.31654 31924 ft 468 kts 352°
2026-04-27 17:46 6.77884 -79.32419 31923 ft 468 kts 352°
2026-04-27 17:46 6.84356 -79.33186 31928 ft 468 kts 352°
2026-04-27 17:47 6.90830 -79.33953 31927 ft 468 kts 352°
2026-04-27 17:47 6.97309 -79.34721 31927 ft 469 kts 352°
2026-04-27 17:48 7.03789 -79.35489 31926 ft 469 kts 352°
2026-04-27 17:48 7.10273 -79.36258 31927 ft 469 kts 352°
2026-04-27 17:49 7.16716 -79.37023 31926 ft 469 kts 352°
2026-04-27 17:49 7.23207 -79.37793 31926 ft 470 kts 352°
2026-04-27 17:50 7.29698 -79.38566 31924 ft 470 kts 352°
2026-04-27 17:50 7.39306 -79.40496 31925 ft 469 kts 346°
2026-04-27 17:51 7.45673 -79.41983 31926 ft 469 kts 346°
2026-04-27 17:51 7.52010 -79.43407 31905 ft 455 kts 346°
2026-04-27 17:52 7.55009 -79.44064 31904 ft 437 kts 346°
2026-04-27 17:52 7.57927 -79.44700 31907 ft 420 kts 346°
2026-04-27 17:52 7.60738 -79.45312 31903 ft 405 kts 346°
2026-04-27 17:52 7.62542 -79.45705 31862 ft 397 kts 346°
2026-04-27 17:53 7.66138 -79.46490 31424 ft 393 kts 346°
2026-04-27 17:53 7.68813 -79.47076 30994 ft 393 kts 346°
2026-04-27 17:53 7.71483 -79.47660 30572 ft 394 kts 347°
2026-04-27 17:53 7.74170 -79.48249 30096 ft 396 kts 347°
2026-04-27 17:54 7.76870 -79.48840 29545 ft 398 kts 347°
2026-04-27 17:54 7.79588 -79.49435 29008 ft 399 kts 347°
2026-04-27 17:54 7.82264 -79.50020 28465 ft 400 kts 347°
2026-04-27 17:54 7.84988 -79.50616 27914 ft 400 kts 347°
2026-04-27 17:55 7.87713 -79.51213 27345 ft 401 kts 347°
2026-04-27 17:55 7.90445 -79.51811 26706 ft 403 kts 347°
2026-04-27 17:55 7.93195 -79.52413 26129 ft 404 kts 347°
2026-04-27 17:55 7.95938 -79.53013 25602 ft 402 kts 347°
2026-04-27 17:56 7.98665 -79.53611 25108 ft 400 kts 347°
2026-04-27 17:56 8.01376 -79.54204 24612 ft 397 kts 347°
2026-04-27 17:56 8.04068 -79.54794 24122 ft 395 kts 347°
2026-04-27 17:56 8.06745 -79.55366 23636 ft 392 kts 349°
2026-04-27 17:57 8.09456 -79.55611 23089 ft 390 kts
2026-04-27 17:57 8.12149 -79.55369 22591 ft 386 kts
2026-04-27 17:57 8.14806 -79.55065 22098 ft 382 kts
2026-04-27 17:57 8.17433 -79.54781 21612 ft 378 kts
2026-04-27 17:58 8.19167 -79.54600 21298 ft 376 kts
2026-04-27 17:58 8.22597 -79.54250 20685 ft 371 kts
2026-04-27 17:58 8.25157 -79.53992 20207 ft 368 kts
2026-04-27 17:58 8.27701 -79.53736 19747 ft 366 kts
2026-04-27 17:59 8.30225 -79.53483 19272 ft 364 kts
2026-04-27 17:59 8.32735 -79.53230 18802 ft 362 kts
2026-04-27 17:59 8.35236 -79.52978 18339 ft 360 kts
2026-04-27 17:59 8.37719 -79.52725 17842 ft 357 kts
2026-04-27 18:00 8.40094 -79.52080 17369 ft 353 kts 25°
2026-04-27 18:00 8.42274 -79.50973 16945 ft 349 kts 26°
2026-04-27 18:00 8.43715 -79.50264 16643 ft 347 kts 26°
2026-04-27 18:00 8.46618 -79.48873 16039 ft 343 kts 25°
2026-04-27 18:01 8.48044 -79.48197 15752 ft 342 kts 25°
2026-04-27 18:01 8.50193 -79.47181 15307 ft 340 kts 25°
2026-04-27 18:01 8.52331 -79.46171 14869 ft 338 kts 25°
2026-04-27 18:01 8.54452 -79.45168 14420 ft 337 kts 25°
2026-04-27 18:02 8.56571 -79.44166 13968 ft 335 kts 25°
2026-04-27 18:02 8.58685 -79.43166 13508 ft 335 kts 25°
2026-04-27 18:02 8.60786 -79.42172 13033 ft 332 kts 25°
2026-04-27 18:02 8.62872 -79.41184 12586 ft 329 kts 25°
2026-04-27 18:03 8.64928 -79.40210 12144 ft 321 kts 25°
2026-04-27 18:03 8.66921 -79.39267 11734 ft 311 kts 25°
2026-04-27 18:03 8.68862 -79.38347 11225 ft 306 kts 25°
2026-04-27 18:03 8.70134 -79.37744 10954 ft 301 kts 25°
2026-04-27 18:04 8.70396 -79.37620 10890 ft 301 kts 25°
2026-04-27 18:04 8.72052 -79.36836 10518 ft 295 kts 25°
2026-04-27 18:04 8.73890 -79.35965 10137 ft 289 kts 25°
2026-04-27 18:04 8.75666 -79.35123 10023 ft 283 kts 25°
2026-04-27 18:05 8.77448 -79.34278 9633 ft 282 kts 25°
2026-04-27 18:05 8.79194 -79.33450 9256 ft 274 kts 25°
2026-04-27 18:05 8.80899 -79.32642 8888 ft 267 kts 25°
2026-04-27 18:05 8.82557 -79.31856 8543 ft 260 kts 25°
2026-04-27 18:06 8.84195 -79.31079 8211 ft 260 kts 25°
2026-04-27 18:06 8.85835 -79.30301 7871 ft 260 kts 25°
2026-04-27 18:06 8.87474 -79.29524 7560 ft 260 kts 25°
2026-04-27 18:06 8.89121 -79.28742 7273 ft 281 kts 25°
2026-04-27 18:07 8.91061 -79.27821 6865 ft 313 kts 25°
2026-04-27 18:07 8.93010 -79.26897 6467 ft 306 kts 25°
2026-04-27 18:07 8.94906 -79.25997 6044 ft 294 kts 25°
2026-04-27 18:07 8.96721 -79.25136 5644 ft 281 kts 25°
2026-04-27 18:08 8.98434 -79.24323 5253 ft 270 kts 25°
2026-04-27 18:08 9.00108 -79.23529 4960 ft 262 kts 25°
2026-04-27 18:08 9.01740 -79.22754 4764 ft 255 kts 25°
2026-04-27 18:08 9.03325 -79.22001 4577 ft 248 kts 25°
2026-04-27 18:09 9.04850 -79.21278 4397 ft 235 kts 25°
2026-04-27 18:09 9.06300 -79.20590 4236 ft 225 kts 25°
2026-04-27 18:09 9.07702 -79.19932 4060 ft 219 kts 24°
2026-04-27 18:09 9.09106 -79.19439 3905 ft 210 kts 10°
2026-04-27 18:10 9.10522 -79.19415 3790 ft 199 kts 352°
2026-04-27 18:10 9.11811 -79.19799 3651 ft 189 kts 337°
2026-04-27 18:10 9.12929 -79.20447 3492 ft 181 kts 326°
2026-04-27 18:10 9.13853 -79.21254 3394 ft 171 kts 315°
2026-04-27 18:11 9.14553 -79.22186 3249 ft 162 kts 303°
2026-04-27 18:11 9.15029 -79.23194 3149 ft 161 kts 292°
2026-04-27 18:11 9.15312 -79.24295 3045 ft 162 kts 281°
2026-04-27 18:11 9.15409 -79.25418 2898 ft 155 kts 274°
2026-04-27 18:12 9.15447 -79.26474 2829 ft 147 kts 274°
2026-04-27 18:12 9.15485 -79.27508 2700 ft 142 kts 276°
2026-04-27 18:12 9.15525 -79.28474 2507 ft 134 kts 274°
2026-04-27 18:12 9.15523 -79.29386 2384 ft 132 kts 273°
2026-04-27 18:13 9.15562 -79.30330 2238 ft 132 kts 277°
2026-04-27 18:13 9.15607 -79.31262 2105 ft 133 kts 274°
2026-04-27 18:13 9.15586 -79.32208 1897 ft 139 kts 267°
2026-04-27 18:13 9.15339 -79.33169 1746 ft 136 kts 250°
2026-04-27 18:14 9.14837 -79.33998 1462 ft 144 kts 231°
2026-04-27 18:14 9.14097 -79.34668 1300 ft 139 kts 213°
2026-04-27 18:14 9.13271 -79.35191 1168 ft 138 kts 210°
2026-04-27 18:14 9.12443 -79.35668 976 ft 134 kts 210°
2026-04-27 18:15 9.11646 -79.36151 752 ft 136 kts 208°
2026-04-27 18:15 9.10834 -79.36637 533 ft 135 kts 206°
2026-04-27 18:15 9.10019 -79.37108 324 ft 130 kts 208°
2026-04-27 18:15 9.09250 -79.37559 71 ft 123 kts 205°
2026-04-27 18:16 9.08582 -79.37949 46 ft 92 kts 210°
2026-04-27 18:16 9.08180 -79.38196 45 ft 46 kts 212°
2026-04-27 18:16 9.07899 -79.38360 47 ft 35 kts 209°
2026-04-27 18:16 9.07759 -79.38443 49 ft 10 kts 207°
2026-04-27 18:17 9.07713 -79.38449 49 ft 5 kts 153°
2026-04-27 18:17 9.07677 -79.38409 42 ft 13 kts 116°
2026-04-27 18:17 9.07658 -79.38347 35 ft 8 kts 93°
2026-04-27 18:17 9.07689 -79.38307 33 ft 8 kts 30°
2026-04-27 18:18 9.07746 -79.38274 33 ft 10 kts 29°
2026-04-27 18:18 9.07814 -79.38235 33 ft 12 kts 30°
2026-04-27 18:18 9.07890 -79.38190 33 ft 13 kts 30°
2026-04-27 18:18 9.07975 -79.38141 33 ft 15 kts 29°
2026-04-27 18:19 9.08068 -79.38084 33 ft 16 kts 31°
2026-04-27 18:19 9.08169 -79.38021 33 ft 18 kts 36°
2026-04-27 18:19 9.08262 -79.37931 32 ft 20 kts 47°
2026-04-27 18:19 9.08361 -79.37826 31 ft 21 kts 45°
2026-04-27 18:20 9.08471 -79.37715 30 ft 24 kts 45°
2026-04-27 18:20 9.08591 -79.37628 30 ft 12 kts 30°
2026-04-27 18:20 9.08674 -79.37578 30 ft 15 kts 31°
2026-04-27 18:20 9.08746 -79.37535 30 ft 5 kts 30°
2026-04-27 18:21 9.08754 -79.37511 30 ft 3 kts 111°
2026-04-27 18:21 9.08733 -79.37490 30 ft 6 kts 127°
2026-04-27 18:21 9.08720 -79.37471 30 ft 2 kts 123°
2026-04-27 18:21 9.08716 -79.37463 30 ft 0 kts 121°